Regional Weather Roundup
Issued by NWS New Orleans/Baton Rouge, LA

Home | Current Version | Previous Version | Graphics & Text | Print | Product List | Glossary On
Versions: 1 2 3 4 5 6 7 8 9 10 11 12 13 14 15 16 17 18 19 20 21 22 23 24 25 26 27 28 29 30 31 32 33 34 35 36 37 38 39 40 41 42 43 44 45 46 47 48 49 50
285
ASUS44 KLIX 281405
RWRLIX
NEW ORLEANS REGIONAL WEATHER ROUNDUP
NATIONAL WEATHER SERVICE NEW ORLEANS LA
900 AM CDT MON JUL 28 2014

NOTE: "FAIR" INDICATES FEW OR NO CLOUDS BELOW 12,000 FEET WITH NO
      SIGNIFICANT WEATHER AND/OR OBSTRUCTIONS TO VISIBILITY.
      SKY/WX - SKY CONDITION AND SIGNIFICANT WEATHER.
      TMP - AIR TEMPERATURE.     DP    - DEWPOINT TEMPERATURE.
      RH  - RELATIVE HUMIDITY.   PRES  - PRESSURE.
      HI  - HEAT INDEX.          WCI   - WIND CHILL INDEX.

*  THESE STATIONS ARE NOT NWS OR FAA STATIONS AND ARE NOT UNDER
   NWS QUALITY CONTROL.

LAZ038-040-048-061>063-065>067-069-281500-
SOUTHEAST LOUISIANA

CITY           SKY/WX    TMP DP  RH WIND       PRES   REMARKS
N.O. AUDUBON     N/A     88  77  70 MISG        N/A  HX 101
N.O. INTL ARPT MOSUNNY   86  76  71 NW14      30.10R HX  96
N.O. LAKEFRONT MOSUNNY   85  77  77 W20       30.10R HX  95
N.O. DOWNTOWN*   N/A     86  73  66 W7        30.11R
SLIDELL        SUNNY     84  75  74 VRB6      30.08S
BATON ROUGE    MOSUNNY   83  76  79 W12       30.10S
BOOTHVILLE     MOSUNNY   85  78  80 NW8       30.11R HX  96
BELLE CHASSE   MOSUNNY   85  75  72 W8        30.09S
BOGALUSA*        N/A     85  75  72 W8        30.09F
GALLIANO*      NOT AVBL
NEW ROADS*       N/A     83  77  82 W8        30.11R
GONZALES*      PTSUNNY   84  79  86 W6        30.10F HX  96
HAMMOND*       SUNNY     86  75  70 W9        30.11S HX  95
HOUMA*         MOSUNNY   86  73  66 W7        30.11R
PORT FOURCHON* MOSUNNY   86  75  70 W12       30.12F HX  95

$$

MSZ070-080>082-281500-
SOUTHERN MISSISSIPPI

CITY           SKY/WX    TMP DP  RH WIND       PRES   REMARKS
MCCOMB         MOSUNNY   82  75  79 W8        30.10S
GULFPORT       SUNNY     87  75  67 NW12G21   30.06S HX  96
BILOXI         SUNNY     85  76  73 VRB3      30.07R
PASCAGOULA     SUNNY     85  75  72 VRB7      30.06S

$$

COASTAL OBSERVATIONS
LAKE AND NEARSHORE STATIONS

STATION/POSITION TIME  TEMP    WIND        PRES    WAVE
                       AIR SEA DIR/SP/G            HT/PER
                 (UTC) (F)     (DEG/KT/KT) (MB)    (FT/S)
PASCAGOULA       1400   85     270/  7/ 11 1017.5
WAVELAND YACHT   1400   82     300/ 11/ 16 1017.9
GRAND ISLE       1400   83 86  300/ 12/ 15 1020.1
SOUTHWEST PASS   1400   85 84  310/ 12/ 19 1020.0
NEW CANAL        1400   84 84  280/  9/ 16 1019.7
SHELL BEACH      1400   83 82  290/ 13/ 17 1018.9

OFFSHORE STATIONS

STATION/POSITION TIME  TEMP    WIND        PRES    WAVE
                       AIR SEA DIR/SP/G            HT/PER
                 (UTC) (F)     (DEG/KT/KT) (MB)    (FT/S)
64 S DAUPHIN ISL 1312   82 86  300/ 16/ 19 1019.0

$$




USA.gov is the U.S. government's official web portal to all federal, state and local government web resources and services.